Time,TemperatureF,DewpointF,PressureIn,WindDirection,WindDirectionDegrees,WindSpeedMPH,WindSpeedGustMPH,Humidity,HourlyPrecipIn,Conditions,Clouds,dailyrainin,SoftwareType,DateUTC
2013-06-03 00:02:00,48.0,46.0,30.11,West,274,0.0,0.0,92,0.00,,,0.00,,2013-06-03 07:02:00,
2013-06-03 00:11:00,48.0,46.0,30.11,West,274,0.0,0.0,92,0.00,,,0.00,,2013-06-03 07:11:00,
2013-06-03 00:22:00,47.0,45.0,30.11,West,274,0.0,0.0,94,0.00,,,0.00,,2013-06-03 07:22:00,
2013-06-03 00:32:00,47.0,45.0,30.11,West,274,0.0,0.0,94,0.00,,,0.00,,2013-06-03 07:32:00,
2013-06-03 00:42:00,47.0,45.0,30.11,West,274,0.0,0.0,94,0.00,,,0.00,,2013-06-03 07:42:00,
2013-06-03 00:52:00,46.0,45.0,30.11,West,274,0.0,0.0,95,0.00,,,0.00,,2013-06-03 07:52:00,
2013-06-03 01:02:00,46.0,45.0,30.11,West,275,0.0,0.0,95,0.00,,,0.00,,2013-06-03 08:02:00,
2013-06-03 01:12:00,46.0,45.0,30.11,West,275,0.0,0.0,95,0.00,,,0.00,,2013-06-03 08:12:00,
2013-06-03 01:22:00,45.0,44.0,30.11,North,11,0.0,0.0,95,0.00,,,0.00,,2013-06-03 08:22:00,
2013-06-03 01:32:00,45.0,44.0,30.11,NNE,32,0.0,0.0,96,0.00,,,0.00,,2013-06-03 08:32:00,
2013-06-03 01:42:00,45.0,44.0,30.11,NNE,32,0.0,0.0,96,0.00,,,0.00,,2013-06-03 08:42:00,
2013-06-03 01:52:00,46.0,45.0,30.11,WNW,295,0.0,2.0,96,0.00,,,0.00,,2013-06-03 08:52:00,
2013-06-03 02:02:00,46.0,45.0,30.11,NNW,347,0.0,0.0,95,0.00,,,0.00,,2013-06-03 09:02:00,
2013-06-03 02:11:00,46.0,45.0,30.11,NNW,347,0.0,0.0,95,0.00,,,0.00,,2013-06-03 09:11:00,
2013-06-03 02:22:00,45.0,44.0,30.11,North,4,0.0,0.0,95,0.00,,,0.00,,2013-06-03 09:22:00,
2013-06-03 02:33:00,44.0,43.0,30.11,North,4,0.0,0.0,95,0.00,,,0.00,,2013-06-03 09:33:00,
2013-06-03 02:42:00,44.0,43.0,30.11,North,4,0.0,0.0,95,0.00,,,0.00,,2013-06-03 09:42:00,
2013-06-03 02:52:00,44.0,43.0,30.11,North,4,0.0,0.0,96,0.00,,,0.00,,2013-06-03 09:52:00,
2013-06-03 03:02:00,43.0,42.0,30.11,North,4,0.0,0.0,96,0.00,,,0.00,,2013-06-03 10:02:00,
2013-06-03 03:12:00,43.0,42.0,30.11,North,4,0.0,0.0,96,0.00,,,0.00,,2013-06-03 10:12:00,
2013-06-03 03:22:00,43.0,42.0,30.11,North,4,0.0,0.0,96,0.00,,,0.00,,2013-06-03 10:22:00,
2013-06-03 03:32:00,42.0,41.0,30.11,North,4,0.0,0.0,96,0.00,,,0.00,,2013-06-03 10:32:00,
2013-06-03 03:42:00,42.0,41.0,30.11,North,4,0.0,0.0,96,0.00,,,0.00,,2013-06-03 10:42:00,
2013-06-03 03:52:00,42.0,41.0,30.11,North,4,0.0,0.0,96,0.00,,,0.00,,2013-06-03 10:52:00,
2013-06-03 04:02:00,42.0,41.0,30.11,North,4,0.0,0.0,97,0.00,,,0.00,,2013-06-03 11:02:00,
2013-06-03 04:12:00,42.0,41.0,30.11,North,4,0.0,0.0,97,0.00,,,0.00,,2013-06-03 11:12:00,
2013-06-03 04:22:00,41.0,40.0,30.11,North,4,0.0,0.0,97,0.00,,,0.00,,2013-06-03 11:22:00,
2013-06-03 04:32:00,41.0,40.0,30.11,North,4,0.0,0.0,97,0.00,,,0.00,,2013-06-03 11:32:00,
2013-06-03 04:42:00,41.0,40.0,30.11,North,4,0.0,0.0,97,0.00,,,0.00,,2013-06-03 11:42:00,
2013-06-03 04:52:00,41.0,40.0,30.11,North,4,0.0,0.0,97,0.00,,,0.00,,2013-06-03 11:52:00,
2013-06-03 05:02:00,40.0,39.0,30.11,North,4,0.0,0.0,97,0.00,,,0.00,,2013-06-03 12:02:00,
2013-06-03 05:21:00,41.0,40.0,30.11,North,4,0.0,0.0,97,0.00,,,0.00,,2013-06-03 12:21:00,
2013-06-03 05:32:00,41.0,40.0,30.11,North,4,0.0,0.0,98,0.00,,,0.00,,2013-06-03 12:32:00,
2013-06-03 05:42:00,41.0,40.0,30.11,North,4,0.0,0.0,98,0.00,,,0.00,,2013-06-03 12:42:00,
2013-06-03 05:52:00,42.0,41.0,30.12,North,4,0.0,0.0,98,0.00,,,0.00,,2013-06-03 12:52:00,
2013-06-03 06:02:00,43.0,42.0,30.12,North,4,0.0,0.0,98,0.00,,,0.00,,2013-06-03 13:02:00,
2013-06-03 06:11:00,43.0,42.0,30.12,North,4,0.0,0.0,98,0.00,,,0.00,,2013-06-03 13:11:00,
2013-06-03 06:22:00,44.0,43.0,30.12,North,4,0.0,0.0,98,0.00,,,0.00,,2013-06-03 13:22:00,
2013-06-03 06:32:00,45.0,44.0,30.12,North,4,0.0,0.0,98,0.00,,,0.00,,2013-06-03 13:32:00,
2013-06-03 06:42:00,45.0,44.0,30.12,North,4,0.0,0.0,98,0.00,,,0.00,,2013-06-03 13:42:00,
2013-06-03 06:52:00,45.0,44.0,30.12,North,4,0.0,0.0,98,0.00,,,0.00,,2013-06-03 13:52:00,
2013-06-03 07:02:00,46.0,45.0,30.12,North,4,0.0,0.0,98,0.00,,,0.00,,2013-06-03 14:02:00,
2013-06-03 07:12:00,46.0,45.0,30.12,North,4,0.0,0.0,98,0.00,,,0.00,,2013-06-03 14:12:00,
2013-06-03 07:22:00,47.0,46.0,30.13,North,4,0.0,0.0,98,0.00,,,0.00,,2013-06-03 14:22:00,
2013-06-03 07:32:00,48.0,47.0,30.13,WNW,293,0.0,0.0,98,0.00,,,0.00,,2013-06-03 14:32:00,
2013-06-03 07:42:00,48.0,47.0,30.13,WNW,293,0.0,0.0,98,0.00,,,0.00,,2013-06-03 14:42:00,
2013-06-03 07:52:00,48.0,47.0,30.13,WNW,293,0.0,0.0,98,0.00,,,0.00,,2013-06-03 14:52:00,
2013-06-03 08:02:00,49.0,48.0,30.14,WSW,253,0.0,0.0,95,0.00,,,0.00,,2013-06-03 15:02:00,
2013-06-03 08:12:00,49.0,48.0,30.14,WSW,253,0.0,0.0,95,0.00,,,0.00,,2013-06-03 15:12:00,
2013-06-03 08:22:00,50.0,48.0,30.14,SW,233,0.0,0.0,92,0.00,,,0.00,,2013-06-03 15:22:00,
2013-06-03 08:33:00,50.0,47.0,30.14,SSE,152,0.0,0.0,91,0.00,,,0.00,,2013-06-03 15:33:00,
2013-06-03 08:43:00,50.0,47.0,30.14,SSE,152,0.0,0.0,91,0.00,,,0.00,,2013-06-03 15:43:00,
2013-06-03 08:53:00,51.0,48.0,30.14,SW,232,0.0,0.0,89,0.00,,,0.00,,2013-06-03 15:53:00,
2013-06-03 09:03:00,51.0,48.0,30.14,SW,232,0.0,0.0,89,0.00,,,0.00,,2013-06-03 16:03:00,
2013-06-03 09:12:00,51.0,48.0,30.14,SW,232,0.0,0.0,89,0.00,,,0.00,,2013-06-03 16:12:00,
2013-06-03 09:22:00,52.0,48.0,30.14,SW,235,0.0,0.0,85,0.00,,,0.00,,2013-06-03 16:22:00,
2013-06-03 09:32:00,53.0,48.0,30.15,NW,307,0.0,0.0,83,0.00,,,0.00,,2013-06-03 16:32:00,
2013-06-03 09:42:00,53.0,48.0,30.14,NW,305,0.0,0.0,83,0.00,,,0.00,,2013-06-03 16:42:00,
2013-06-03 09:53:00,53.0,48.0,30.14,NW,305,0.0,0.0,83,0.00,,,0.00,,2013-06-03 16:53:00,
2013-06-03 10:02:00,54.0,49.0,30.14,WNW,303,0.0,0.0,82,0.00,,,0.00,,2013-06-03 17:02:00,
2013-06-03 10:12:00,54.0,49.0,30.14,WNW,303,0.0,0.0,82,0.00,,,0.00,,2013-06-03 17:12:00,
2013-06-03 10:22:00,54.0,48.0,30.15,West,275,0.0,0.0,80,0.00,,,0.00,,2013-06-03 17:22:00,
2013-06-03 10:33:00,55.0,49.0,30.14,WNW,293,0.0,0.0,79,0.00,,,0.00,,2013-06-03 17:33:00,
2013-06-03 10:42:00,55.0,49.0,30.14,WNW,293,0.0,0.0,79,0.00,,,0.00,,2013-06-03 17:42:00,
2013-06-03 10:52:00,55.0,48.0,30.14,SSE,159,0.0,3.0,78,0.00,,,0.00,,2013-06-03 17:52:00,
2013-06-03 11:02:00,56.0,49.0,30.14,SW,228,0.0,0.0,78,0.00,,,0.00,,2013-06-03 18:02:00,
2013-06-03 11:12:00,56.0,49.0,30.14,SW,228,0.0,0.0,78,0.00,,,0.00,,2013-06-03 18:12:00,
2013-06-03 11:22:00,57.0,50.0,30.14,NW,304,0.0,0.0,76,0.00,,,0.00,,2013-06-03 18:22:00,
2013-06-03 11:32:00,58.0,50.0,30.14,SW,228,0.0,0.0,74,0.00,,,0.00,,2013-06-03 18:32:00,
2013-06-03 11:42:00,58.0,50.0,30.14,SW,228,0.0,0.0,74,0.00,,,0.00,,2013-06-03 18:42:00,
2013-06-03 11:52:00,58.0,49.0,30.14,WNW,295,0.0,4.0,73,0.00,,,0.00,,2013-06-03 18:52:00,
2013-06-03 12:03:00,59.0,50.0,30.14,NW,313,0.0,5.0,71,0.00,,,0.00,,2013-06-03 19:03:00,
2013-06-03 12:12:00,59.0,50.0,30.14,NW,313,0.0,5.0,71,0.00,,,0.00,,2013-06-03 19:12:00,
2013-06-03 12:22:00,61.0,51.0,30.14,ENE,73,0.0,3.0,70,0.00,,,0.00,,2013-06-03 19:22:00,
2013-06-03 12:32:00,63.0,51.0,30.13,North,353,0.0,3.0,66,0.00,,,0.00,,2013-06-03 19:32:00,
2013-06-03 12:42:00,63.0,51.0,30.13,North,353,0.0,3.0,66,0.00,,,0.00,,2013-06-03 19:42:00,
2013-06-03 12:52:00,62.0,51.0,30.12,NW,309,0.0,8.0,67,0.00,,,0.00,,2013-06-03 19:52:00,
2013-06-03 13:02:00,63.0,51.0,30.11,NE,37,0.0,3.0,65,0.00,,,0.00,,2013-06-03 20:02:00,
2013-06-03 13:12:00,63.0,51.0,30.11,NE,37,0.0,3.0,65,0.00,,,0.00,,2013-06-03 20:12:00,
2013-06-03 13:22:00,66.0,53.0,30.11,NNW,338,0.0,3.0,63,0.00,,,0.00,,2013-06-03 20:22:00,
2013-06-03 13:32:00,66.0,53.0,30.11,WNW,295,0.0,3.0,62,0.00,,,0.00,,2013-06-03 20:32:00,
2013-06-03 13:42:00,66.0,53.0,30.11,WNW,295,0.0,3.0,62,0.00,,,0.00,,2013-06-03 20:42:00,
2013-06-03 13:52:00,67.0,53.0,30.11,ENE,63,0.0,5.0,61,0.00,,,0.00,,2013-06-03 20:52:00,
2013-06-03 14:02:00,67.0,52.0,30.10,South,176,0.0,5.0,59,0.00,,,0.00,,2013-06-03 21:02:00,
2013-06-03 14:12:00,67.0,52.0,30.10,South,176,0.0,5.0,59,0.00,,,0.00,,2013-06-03 21:12:00,
2013-06-03 14:22:00,68.0,54.0,30.10,WNW,298,1.0,5.0,60,0.00,,,0.00,,2013-06-03 21:22:00,
2013-06-03 14:32:00,70.0,54.0,30.09,NNW,333,0.0,5.0,56,0.00,,,0.00,,2013-06-03 21:32:00,
2013-06-03 14:43:00,70.0,54.0,30.09,NNW,333,0.0,5.0,56,0.00,,,0.00,,2013-06-03 21:43:00,
2013-06-03 14:53:00,70.0,55.0,30.09,NW,309,0.0,7.0,58,0.00,,,0.00,,2013-06-03 21:53:00,
2013-06-03 15:02:00,70.0,54.0,30.09,NNW,340,1.0,7.0,56,0.00,,,0.00,,2013-06-03 22:02:00,
2013-06-03 15:12:00,70.0,54.0,30.09,NNW,340,1.0,7.0,56,0.00,,,0.00,,2013-06-03 22:12:00,
2013-06-03 15:22:00,70.0,53.0,30.09,NE,41,1.0,5.0,55,0.00,,,0.00,,2013-06-03 22:22:00,
2013-06-03 15:32:00,71.0,53.0,30.08,ENE,62,1.0,6.0,53,0.00,,,0.00,,2013-06-03 22:32:00,
2013-06-03 15:42:00,71.0,53.0,30.08,ENE,62,1.0,6.0,53,0.00,,,0.00,,2013-06-03 22:42:00,
2013-06-03 15:53:00,72.0,52.0,30.08,NNE,16,2.0,7.0,50,0.00,,,0.00,,2013-06-03 22:53:00,
2013-06-03 16:02:00,72.0,51.0,30.07,SE,125,1.0,6.0,48,0.00,,,0.00,,2013-06-03 23:02:00,
2013-06-03 16:12:00,72.0,51.0,30.07,SE,125,1.0,6.0,48,0.00,,,0.00,,2013-06-03 23:12:00,
2013-06-03 16:22:00,72.0,52.0,30.07,NW,307,1.0,7.0,50,0.00,,,0.00,,2013-06-03 23:22:00,
2013-06-03 16:32:00,72.0,51.0,30.07,NW,312,0.0,9.0,47,0.00,,,0.00,,2013-06-03 23:32:00,
2013-06-03 16:42:00,72.0,51.0,30.07,NW,312,0.0,9.0,47,0.00,,,0.00,,2013-06-03 23:42:00,
2013-06-03 16:52:00,72.0,49.0,30.07,West,266,1.0,9.0,44,0.00,,,0.00,,2013-06-03 23:52:00,
2013-06-03 17:02:00,72.0,51.0,30.07,West,280,4.0,10.0,47,0.00,,,0.00,,2013-06-04 00:02:00,
2013-06-03 17:12:00,72.0,51.0,30.07,West,280,4.0,10.0,47,0.00,,,0.00,,2013-06-04 00:12:00,
2013-06-03 17:22:00,73.0,52.0,30.06,WSW,252,2.0,9.0,48,0.00,,,0.00,,2013-06-04 00:22:00,
2013-06-03 17:32:00,72.0,51.0,30.06,East,82,3.0,9.0,48,0.00,,,0.00,,2013-06-04 00:32:00,
2013-06-03 17:42:00,72.0,51.0,30.06,East,82,3.0,9.0,48,0.00,,,0.00,,2013-06-04 00:42:00,
2013-06-03 17:52:00,72.0,51.0,30.07,NE,55,1.0,8.0,48,0.00,,,0.00,,2013-06-04 00:52:00,
2013-06-03 18:02:00,71.0,51.0,30.06,WNW,296,2.0,9.0,50,0.00,,,0.00,,2013-06-04 01:02:00,
2013-06-03 18:12:00,71.0,51.0,30.06,WNW,296,2.0,9.0,50,0.00,,,0.00,,2013-06-04 01:12:00,
2013-06-03 18:22:00,71.0,52.0,30.06,WNW,293,2.0,9.0,51,0.00,,,0.00,,2013-06-04 01:22:00,
2013-06-03 18:32:00,70.0,51.0,30.06,WSW,241,4.0,9.0,51,0.00,,,0.00,,2013-06-04 01:32:00,
2013-06-03 18:42:00,70.0,51.0,30.06,WSW,241,4.0,9.0,51,0.00,,,0.00,,2013-06-04 01:42:00,
2013-06-03 18:52:00,69.0,51.0,30.07,West,278,3.0,10.0,52,0.00,,,0.00,,2013-06-04 01:52:00,
2013-06-03 19:02:00,68.0,50.0,30.07,WNW,297,4.0,9.0,52,0.00,,,0.00,,2013-06-04 02:02:00,
2013-06-03 19:12:00,68.0,50.0,30.07,WNW,297,4.0,9.0,52,0.00,,,0.00,,2013-06-04 02:12:00,
2013-06-03 19:21:00,68.0,51.0,30.07,SW,218,1.0,10.0,54,0.00,,,0.00,,2013-06-04 02:21:00,
2013-06-03 19:32:00,67.0,49.0,30.07,WNW,297,1.0,7.0,53,0.00,,,0.00,,2013-06-04 02:32:00,
2013-06-03 19:42:00,67.0,49.0,30.07,WNW,297,1.0,7.0,53,0.00,,,0.00,,2013-06-04 02:42:00,
2013-06-03 19:52:00,67.0,50.0,30.07,WNW,302,2.0,5.0,54,0.00,,,0.00,,2013-06-04 02:52:00,
2013-06-03 20:02:00,66.0,50.0,30.08,WNW,283,3.0,8.0,56,0.00,,,0.00,,2013-06-04 03:02:00,
2013-06-03 20:11:00,66.0,50.0,30.08,WNW,283,3.0,8.0,56,0.00,,,0.00,,2013-06-04 03:11:00,
2013-06-03 20:22:00,65.0,49.0,30.08,WNW,290,3.0,8.0,57,0.00,,,0.00,,2013-06-04 03:22:00,
2013-06-03 20:32:00,63.0,48.0,30.09,WNW,293,1.0,6.0,58,0.00,,,0.00,,2013-06-04 03:32:00,
2013-06-03 20:43:00,63.0,48.0,30.09,WNW,293,1.0,6.0,58,0.00,,,0.00,,2013-06-04 03:43:00,
2013-06-03 20:53:00,61.0,48.0,30.09,WNW,290,1.0,5.0,62,0.00,,,0.00,,2013-06-04 03:53:00,
2013-06-03 21:02:00,60.0,49.0,30.09,WNW,283,0.0,7.0,66,0.00,,,0.00,,2013-06-04 04:02:00,
2013-06-03 21:13:00,60.0,49.0,30.09,WNW,283,0.0,7.0,66,0.00,,,0.00,,2013-06-04 04:13:00,
2013-06-03 21:23:00,58.0,47.0,30.09,NW,321,0.0,3.0,68,0.00,,,0.00,,2013-06-04 04:23:00,
2013-06-03 21:33:00,57.0,48.0,30.10,WNW,296,0.0,3.0,71,0.00,,,0.00,,2013-06-04 04:33:00,
2013-06-03 21:42:00,57.0,48.0,30.10,WNW,296,0.0,3.0,71,0.00,,,0.00,,2013-06-04 04:42:00,
2013-06-03 21:53:00,56.0,48.0,30.10,WNW,286,0.0,2.0,74,0.00,,,0.00,,2013-06-04 04:53:00,
2013-06-03 22:02:00,55.0,48.0,30.10,West,274,0.0,0.0,76,0.00,,,0.00,,2013-06-04 05:02:00,
2013-06-03 22:12:00,55.0,48.0,30.10,West,274,0.0,0.0,76,0.00,,,0.00,,2013-06-04 05:12:00,
2013-06-03 22:22:00,54.0,48.0,30.11,WNW,302,0.0,0.0,80,0.00,,,0.00,,2013-06-04 05:22:00,
2013-06-03 22:32:00,53.0,48.0,30.11,WNW,295,0.0,0.0,82,0.00,,,0.00,,2013-06-04 05:32:00,
2013-06-03 22:42:00,53.0,48.0,30.11,WNW,295,0.0,0.0,82,0.00,,,0.00,,2013-06-04 05:42:00,
2013-06-03 22:52:00,51.0,47.0,30.11,WNW,295,0.0,0.0,85,0.00,,,0.00,,2013-06-04 05:52:00,
2013-06-03 23:02:00,50.0,46.0,30.11,WNW,295,0.0,0.0,87,0.00,,,0.00,,2013-06-04 06:02:00,
2013-06-03 23:12:00,50.0,46.0,30.11,WNW,295,0.0,0.0,87,0.00,,,0.00,,2013-06-04 06:12:00,
2013-06-03 23:22:00,49.0,46.0,30.11,WNW,295,0.0,0.0,90,0.00,,,0.00,,2013-06-04 06:22:00,
2013-06-03 23:32:00,48.0,45.0,30.11,NW,318,0.0,0.0,91,0.00,,,0.00,,2013-06-04 06:32:00,
2013-06-03 23:42:00,48.0,45.0,30.11,NW,318,0.0,0.0,91,0.00,,,0.00,,2013-06-04 06:42:00,
2013-06-03 23:52:00,47.0,45.0,30.11,NW,318,0.0,0.0,92,0.00,,,0.00,,2013-06-04 06:52:00,